SCP
0 0 0 0 0 0 0 0 0 0 0 0 1 3 5 7 9 11 10 9 8 7 7 9 11 11 9 10 10 11 11 12 12 11 9 8 7 7 7 8 8 8 7 6
0 0 0 0 0 0 0 0 0 0 0 1 1 4 8 11 11 10 9 7 7 7 7 8 10 10 10 10 11 12 12 12 12 12 10 8 7 6 7 7 8 8 7 7
0 0 0 0 0 0 0 0 0 0 1 1 1 4 8 10 8 6 5 5 5 6 7 7 8 10 11 11 12 13 14 14 13 12 11 9 7 7 6 6 7 8 8 7
0 0 0 0 0 0 0 0 0 0 1 1 1 3 5 5 3 2 3 3 4 5 5 6 7 9 10 10 12 14 16 16 15 13 11 9 8 7 6 6 6 7 8 7
0 0 0 0 0 0 0 0 0 0 0 1 1 2 4 3 2 2 2 3 4 5 5 5 6 7 7 8 11 14 17 17 14 12 10 9 8 7 7 6 6 6 6 6
0 0 0 0 0 0 0 0 0 0 0 0 1 2 4 4 3 2 2 3 5 6 5 5 5 5 5 6 9 13 16 16 14 11 10 9 8 7 7 6 6 6 5 5
0 0 0 0 0 0 0 0 0 0 0 0 1 2 4 4 3 2 2 4 6 6 5 5 4 5 5 5 8 12 15 15 13 11 10 10 9 7 6 6 6 6 6 5
0 0 0 0 0 0 0 0 0 0 0 0 1 2 3 3 2 2 3 4 5 6 5 4 3 3 4 5 7 11 14 15 12 10 10 10 9 7 6 6 6 6 6 6
0 0 0 0 0 0 0 0 0 0 0 0 1 2 2 2 2 3 4 5 5 5 5 4 3 3 4 5 6 10 14 15 13 11 10 9 8 6 5 6 6 6 7 7
0 0 0 0 0 0 0 0 0 0 0 0 1 2 2 3 3 3 3 4 4 5 6 5 4 4 4 5 6 9 13 14 13 11 9 8 7 5 5 5 6 6 6 7
0 0 0 0 0 0 0 0 1 1 1 0 1 2 3 3 3 3 3 3 3 4 5 5 4 4 4 4 6 9 11 12 11 9 7 6 5 4 4 4 5 5 6 7
1 1 0 0 0 0 0 0 1 1 1 0 1 2 3 3 3 2 3 4 4 4 4 4 3 3 4 4 6 8 10 10 8 6 5 5 5 4 4 4 4 5 6 6
1 1 1 1 0 0 0 0 0 1 1 1 1 3 4 4 3 3 4 5 6 6 5 4 4 4 4 4 6 8 8 7 6 4 4 4 4 5 4 4 4 5 6 6
1 1 1 1 1 0 0 0 0 1 1 1 2 4 4 4 3 4 5 6 7 7 6 6 5 5 5 4 5 6 6 5 4 4 4 4 4 5 5 5 5 6 6 6
1 1 1 1 1 0 0 0 0 0 1 1 2 3 4 3 4 5 6 7 7 7 6 5 5 5 4 4 4 4 3 4 4 4 4 4 4 5 5 5 6 6 6 6
1 1 1 1 0 0 0 0 0 0 1 2 3 3 3 4 5 6 7 7 6 6 5 4 3 3 3 3 3 3 3 3 4 3 3 3 3 4 4 4 4 5 6 6
1 1 1 1 0 0 0 1 0 1 1 2 3 3 4 5 5 6 7 6 4 4 4 3 3 3 3 3 4 4 3 3 4 3 3 3 3 2 2 2 3 4 5 5
1 1 1 1 1 0 1 1 1 1 2 3 4 3 4 5 5 5 4 4 3 3 3 3 3 4 4 5 5 5 4 4 4 3 3 2 2 2 2 2 2 4 5 5
1 1 1 1 1 1 1 0 0 1 2 3 4 3 4 5 5 3 3 2 2 3 4 4 5 6 7 7 6 6 5 4 3 3 2 2 2 2 2 2 2 3 5 5
1 1 1 1 1 0 0 0 0 1 1 2 3 3 3 4 4 3 2 2 3 5 6 6 6 8 9 8 7 6 6 5 3 3 2 2 2 2 2 2 2 3 4 4
1 1 1 1 0 0 0 0 1 1 2 3 3 3 3 3 3 3 3 3 5 6 7 6 7 7 8 7 6 6 6 5 4 3 2 2 2 2 2 2 2 3 4 4
1 1 1 1 1 1 1 1 2 3 3 4 4 3 3 3 3 3 3 4 5 6 6 5 5 6 5 5 4 4 5 5 4 3 3 3 3 2 2 2 2 3 4 4
1 1 1 1 1 1 1 1 3 4 4 4 4 3 3 3 3 3 3 3 4 4 4 4 4 3 3 3 3 3 4 4 4 4 3 3 3 3 3 2 2 3 3 4
1 1 1 1 2 2 1 1 2 2 3 3 3 3 3 3 3 3 2 2 2 2 2 2 2 2 2 2 2 3 3 4 4 4 4 3 3 3 3 2 2 2 3 3
2 1 1 1 1 1 1 1 1 1 1 2 2 3 3 3 3 2 2 1 1 1 1 1 2 3 2 2 2 3 4 5 5 4 3 3 3 3 2 2 2 2 2 2
2 2 1 1 1 1 1 1 1 1 1 2 2 2 2 2 2 2 2 1 1 1 1 1 2 3 3 2 2 4 5 6 5 4 3 2 2 2 2 1 1 1 1 1
Wind_Speed
13 13 14 15 16 16 14 11 12 10 9 10 10 9 7 5 5 5 5 5 6 5 6 6 7 7 7 6 6 6 5 5 4 4 3 3 3 2 2 2 3 3 3 3
13 17 17 15 14 15 15 13 14 11 8 8 9 8 5 4 5 3 4 5 5 6 6 7 6 6 7 6 6 6 6 5 4 3 2 3 3 2 2 2 3 3 3 3
18 14 13 13 15 14 14 13 14 12 10 11 11 11 7 6 5 4 5 4 4 5 6 6 6 6 6 6 5 5 5 5 5 4 3 2 2 1 2 3 3 3 3 4
16 14 13 13 13 13 13 13 13 14 13 11 12 11 7 6 6 6 4 3 3 4 5 5 5 5 5 5 5 5 5 5 4 3 3 4 3 3 3 2 3 3 4 4
14 13 13 14 12 12 13 13 13 15 15 15 14 11 6 7 6 6 6 5 3 3 4 4 4 5 5 5 5 5 5 5 5 4 3 3 3 3 2 3 3 3 4 4
15 13 12 12 11 11 11 13 13 14 13 15 14 12 8 6 6 6 5 4 5 4 4 3 2 3 4 4 5 5 6 5 4 4 3 3 3 3 3 3 3 2 2 3
15 15 14 11 12 11 11 10 8 10 10 11 9 9 3 3 4 5 5 5 6 5 5 5 3 3 3 4 4 5 5 5 4 4 3 3 3 2 3 3 3 3 2 3
13 12 12 11 11 10 11 12 10 10 10 8 8 6 3 3 4 6 4 4 6 5 5 5 4 4 4 3 3 4 5 4 4 3 2 2 2 2 2 2 2 3 2 3
11 9 7 8 8 12 13 12 13 13 15 12 6 3 4 5 6 5 4 4 4 4 4 4 4 3 3 4 3 4 4 4 3 3 2 2 2 2 2 2 2 2 1 2
11 11 9 6 8 11 14 12 8 9 10 11 9 4 4 7 6 4 2 4 4 4 3 4 4 3 3 3 4 4 4 3 3 3 2 2 2 2 1 2 2 2 2 2
10 10 11 9 9 9 9 11 9 7 8 9 9 3 2 6 6 5 4 3 4 4 4 4 3 3 3 3 3 3 3 3 2 2 2 2 2 2 1 1 2 2 1 2
5 7 10 11 10 9 9 9 8 7 8 8 8 2 5 5 5 5 5 5 5 4 4 4 3 2 3 2 2 3 3 3 2 2 3 2 2 2 2 2 1 2 2 2
5 6 9 10 8 6 8 8 10 9 7 8 9 1 3 5 4 4 4 6 5 4 4 4 3 3 2 2 2 2 2 2 2 2 2 2 2 2 2 2 2 2 2 2
3 6 9 11 9 7 8 10 10 9 8 8 8 2 2 3 4 4 4 5 5 5 4 4 4 3 3 3 2 1 2 2 2 2 2 2 2 1 2 2 2 2 2 2
4 8 11 13 13 11 10 11 10 10 10 10 7 4 3 3 3 4 4 4 5 5 5 4 4 3 3 3 3 2 2 3 2 2 2 2 2 2 2 2 2 2 2 3
3 7 10 13 12 11 11 11 10 10 9 8 5 3 2 4 4 4 3 2 3 4 4 4 4 3 2 2 2 2 2 2 2 2 1 1 1 1 1 2 2 1 1 2
5 7 9 11 11 11 12 9 9 8 7 8 6 1 2 2 3 3 3 3 3 3 3 3 3 3 2 2 2 2 1 2 2 1 1 1 1 1 0 0 1 1 1 1
7 7 6 9 10 11 5 6 7 6 4 3 1 2 2 3 3 4 3 2 2 3 3 3 2 2 2 2 2 2 1 2 1 1 1 0 0 0 0 0 0 1 1 1
6 6 6 7 9 9 6 6 6 6 1 3 2 2 2 2 2 3 3 4 3 3 3 3 2 2 2 2 2 1 1 1 1 1 1 1 1 1 1 1 1 1 1 1
7 6 6 7 8 8 4 5 4 3 1 4 3 2 2 1 1 1 4 4 4 5 4 3 3 2 2 2 1 1 1 1 1 1 1 1 1 1 1 1 1 1 1 2
5 6 8 9 8 5 3 4 2 2 1 5 4 3 2 1 2 3 3 4 5 4 4 3 2 2 2 1 1 0 0 1 1 1 1 1 1 1 1 1 1 1 2 2
5 4 5 6 7 4 4 3 2 3 3 3 3 3 3 4 4 4 4 4 4 3 3 3 2 2 2 2 2 1 1 1 1 1 2 1 2 2 1 1 1 1 2 2
3 3 2 1 1 3 4 5 4 2 2 2 2 2 2 3 3 4 4 4 3 3 3 2 2 2 2 2 2 2 2 1 1 2 2 2 2 2 1 2 2 2 2 3
3 2 2 2 2 1 3 3 3 3 3 2 2 2 2 2 2 3 3 3 2 2 1 1 2 2 2 2 2 2 2 2 2 2 2 2 2 2 2 2 2 2 2 2
5 4 3 2 1 1 1 3 3 2 2 2 1 1 1 1 2 3 3 2 2 2 1 1 2 2 1 2 2 2 2 2 2 2 2 3 3 3 2 2 2 2 1 1
5 5 3 2 2 3 2 2 2 2 1 1 1 2 2 1 2 3 2 2 2 1 1 1 2 2 2 2 3 2 2 2 2 2 3 3 3 2 3 2 2 1 2 2
Wind_Direction
221 228 235 237 240 250 261 266 269 266 246 236 241 240 223 212 221 208 203 194 187 180 161 142 144 147 144 142 150 157 165 161 161 164 168 171 178 180 165 162 149 155 168 175
232 233 241 247 252 255 260 265 268 264 258 260 258 251 228 213 222 220 207 197 183 168 157 146 144 143 146 146 151 160 166 166 171 171 174 178 173 178 170 160 151 162 170 177
237 241 237 246 252 257 261 264 267 272 273 267 265 254 235 219 211 201 208 194 171 167 146 145 148 146 147 149 155 160 157 162 175 176 182 179 170 176 180 172 161 171 176 179
248 250 252 247 250 258 263 267 273 276 271 267 259 262 234 208 191 190 185 179 182 164 147 144 146 147 149 150 150 147 144 150 158 165 188 189 188 194 193 182 171 176 175 170
250 248 247 252 253 258 267 276 274 272 269 269 262 260 249 217 206 187 177 172 165 158 143 138 147 146 143 144 147 151 145 152 158 173 188 200 208 200 192 175 173 178 170 171
265 264 252 252 258 261 268 272 270 266 264 259 260 256 243 213 199 172 165 166 157 158 140 133 151 131 135 136 137 144 149 154 162 174 185 197 213 207 186 172 162 171 168 169
250 252 253 251 258 251 254 259 261 257 248 255 264 256 230 183 194 157 156 170 156 155 151 150 167 146 139 138 137 133 143 156 164 174 186 205 214 206 175 166 168 178 176 173
254 247 237 233 242 258 245 247 251 264 268 263 246 240 154 128 113 100 112 128 140 158 148 152 156 151 155 140 133 140 142 148 153 161 171 185 181 189 172 172 182 184 182 173
273 275 249 235 238 252 253 247 257 264 275 280 267 183 138 120 117 127 149 141 120 119 129 135 122 128 143 136 129 134 142 147 155 162 159 161 169 186 178 170 183 164 160 166
275 283 278 252 246 243 252 258 261 260 271 279 276 244 181 164 159 152 166 135 113 121 127 122 126 124 117 127 128 131 138 151 158 164 172 166 164 177 174 175 162 156 161 151
279 276 276 262 243 261 256 254 258 266 263 271 278 284 96 158 152 165 172 150 126 120 119 108 110 124 120 126 127 131 140 147 159 168 165 151 165 169 157 145 138 147 153 158
303 289 278 273 270 269 268 268 262 256 261 265 272 263 101 118 141 150 147 126 112 103 106 105 102 104 109 114 129 136 138 148 160 172 170 159 154 148 148 157 157 149 167 179
326 287 275 269 269 270 268 276 277 270 262 263 268 216 127 116 102 101 110 106 105 108 104 105 99 86 85 106 121 129 137 142 158 162 158 143 137 149 158 165 161 166 177 183
278 271 272 274 283 285 276 277 282 274 263 262 264 223 162 122 113 97 92 100 108 112 107 101 92 78 64 57 81 88 102 116 130 135 135 131 134 147 160 164 165 177 178 179
284 268 269 275 277 277 277 273 272 275 278 277 274 248 171 131 101 95 94 102 106 108 109 101 86 73 62 57 51 63 70 81 83 90 101 130 145 161 173 174 172 174 183 195
268 280 280 275 278 278 273 274 273 266 267 270 268 268 109 114 108 101 94 95 95 106 112 103 92 79 65 62 60 55 67 75 82 91 96 106 128 156 186 171 153 167 194 215
264 276 282 277 280 279 268 277 272 264 270 260 263 291 97 84 74 88 98 74 76 79 83 87 94 81 63 46 53 57 70 77 88 91 76 61 128 148 41 290 153 173 198 225
262 274 275 278 279 260 276 307 304 283 280 314 42 90 89 84 83 84 90 77 54 55 66 68 72 72 67 62 62 61 63 80 79 82 75 19 224 210 229 293 286 212 216 219
221 245 262 269 268 263 275 295 302 288 290 9 47 63 63 70 105 89 54 49 54 58 75 83 72 74 65 58 81 73 40 43 54 20 4 336 330 335 297 283 284 254 241 237
204 211 245 260 267 269 298 326 320 297 240 12 46 52 47 28 225 103 51 46 43 55 65 75 70 70 68 46 56 87 62 9 333 326 314 316 329 334 311 300 280 253 247 239
220 219 237 255 259 260 342 329 307 255 341 16 27 29 42 24 19 88 67 60 57 56 63 70 65 61 57 45 34 330 335 311 315 325 322 316 317 302 283 293 289 272 263 259
258 248 242 254 257 267 2 339 9 44 36 26 27 28 29 56 73 87 81 70 64 55 47 56 55 40 26 15 351 312 321 314 314 315 308 317 311 292 297 319 283 277 271 265
266 278 282 271 283 10 14 58 69 38 30 27 35 38 58 70 82 86 90 87 76 60 42 39 41 41 29 10 353 330 332 332 324 322 311 306 304 295 288 263 253 247 247 260
295 287 254 228 146 32 360 31 44 17 0 14 54 71 71 75 81 94 100 105 106 85 60 17 18 40 28 12 3 350 330 337 328 307 297 283 273 273 279 270 267 265 270 273
318 306 309 302 332 281 325 337 356 6 3 5 53 76 58 67 98 100 101 100 107 102 60 23 12 9 1 360 347 349 341 333 327 310 301 284 270 271 276 275 287 277 297 292
304 305 295 288 320 306 309 337 357 11 19 20 55 71 77 70 88 100 101 94 89 93 68 22 355 348 353 353 337 345 346 329 313 302 299 298 294 287 279 274 279 271 228 216